OneWeb SL0446

operational
NORAD ID: 51640 Int'l Des: 2022-012 Owner: ONEWEBN Country: UK Constellation: oneweb
LEOCIRCULARPOLARONEWEB_TYPE

OneWeb SL0446について

説明を読み込み中...

リアルタイム位置

3D地球を読み込み中...

次回通過

高度履歴

Altitude vs Time

uPlot chart will show altitude changes over time

軌道要素

1 51640U 22012U 26034.46871096 -.00000082 00000-0 -27044-3 0 9991
2 51640 87.8748 62.9344 0001971 98.2622 261.8729 13.10368972191810
Epoch: Feb 3, 2026 • Age: 13 hours

現在のステータス

高度 1224.1 km
速度 7.24 km/s
衛星直下点 22.53°N, 73.35°W
打ち上げ日 Feb 10, 2022
運用期間 3.9 years
タイプ internet

技術仕様

分類 Payload
質量 148.00 kg
乾燥質量 140.00 kg
総質量 148.00 kg
長さ 1.30 m
直径 1.00 m
スパン 5.00 m
形状 Trapezoid+2 pan
製造者 ONEWUS
バスタイプ ARROW
フェーズステータス In Orbit
所有者/国 ONEWEBN/UK

大規模コンステレーション

Loading constellations...